Regional Weather Roundup
Issued by NWS Wilmington, NC

Home | Current Version | Previous Version | Text Only | Print | Product List | Glossary On
Versions: 1 2 3 4 5 6 7 8 9 10 11 12 13 14 15 16 17 18 19 20 21 22 23 24 25 26 27 28
000
ASUS42 KILM 201610
RWRILM
RWRILM
REGIONAL HOURLY WEATHER ROUNDUP
NATIONAL WEATHER SERVICE WILMINGTON NC
1200 PM EDT SUN APR 20 2014

NOTE: "FAIR" INDICATES FEW OR NO CLOUDS BELOW 12,000 FEET WITH NO
SIGNIFICANT WEATHER AND/OR OBSTRUCTIONS TO VISIBILITY.

...............WFO WILMINGTON COUNTY WARNING AREA...............

......COASTAL NC AND SC COUNTIES......

CITY           SKY/WX    TMP DP  RH WIND       PRES   REMARKS
WILMINGTON     LGT RAIN  55  52  89 N22G30    30.08F FOG
SOUTHPORT      DRIZZLE   55  52  92 N17G26    30.06F
N MYRTLE BEACH CLOUDY    59  51  75 N21G31    30.08S
MYRTLE BEACH   PTSUNNY   59  50  72 N23G30    30.08F

......INLAND NC AND SC COUNTIES.......

CITY           SKY/WX    TMP DP  RH WIND       PRES   REMARKS
LUMBERTON      CLOUDY    60  44  55 NE20G32   30.17S
ELIZABETHTOWN  DRIZZLE   55  48  80 N5        30.17S
WHITEVILLE     CLOUDY    55  47  76 N10G18    30.13F
FLORENCE       CLOUDY    62  40  44 NE17G26   30.17R
DARLINGTON     CLOUDY    63  39  42 NE17G24   30.20F

....................REST OF NORTH CAROLINA......................

.........EASTERN NC.........

CITY           SKY/WX    TMP DP  RH WIND       PRES   REMARKS
CAPE HATTERAS  LGT RAIN  56  56 100 NE9G20    30.07S FOG
JACKSONVILLE   CLOUDY    55  55 100 N17G28    30.14S
MOREHEAD CITY  LGT RAIN  56  55  97 N23G35    30.06S FOG
KENANSVILLE    CLOUDY    57  47  68 N15G23    30.17F
NEW BERN       LGT RAIN  57  54  88 N20G28    30.14S FOG
ELIZABETH CITY LGT RAIN  52  48  87 NE26G35   30.23S FOG

.........CENTRAL NC.........

CITY           SKY/WX    TMP DP  RH WIND       PRES   REMARKS
RALEIGH DURHAM PTSUNNY   62  42  47 NE17G29   30.26F
ROCKY MOUNT    CLOUDY    61  45  55 N15       30.24S
ROANOKE RAPIDS NOT AVBL
FAYETTEVILLE   CLOUDY    59  42  53 NE21      30.19S
HOFFMAN        PTSUNNY   60  40  47 N15G24    30.22F

.........WESTERN NC.........

CITY           SKY/WX    TMP DP  RH WIND       PRES   REMARKS
CHARLOTTE      MOSUNNY   62  34  35 NE17G28   30.27S
GREENSBORO     PTSUNNY   62  30  29 NE24G31   30.29S
HICKORY        NOT AVBL
BOONE          NOT AVBL
ASHEVILLE      NOT AVBL

.....................REST OF SOUTH CAROLINA.....................

.........EASTERN SC.........

CITY           SKY/WX    TMP DP  RH WIND       PRES   REMARKS
CHARLESTON     CLOUDY    63  50  62 N13       30.11R
BEAUFORT MCAS  CLOUDY    57  54  88 NE15      30.13F
HILTON HEAD    NOT AVBL

.........CENTRAL SC.........

CITY           SKY/WX    TMP DP  RH WIND       PRES   REMARKS
COLUMBIA       PTSUNNY   67  37  33 N12G21    30.20S
ORANGEBURG     CLOUDY    60  41  49 N18G24    30.17F
SUMTER SHAW    CLOUDY    63  42  46 N17       30.17S

.........WESTERN SC.........

CITY           SKY/WX    TMP DP  RH WIND       PRES   REMARKS
GREENVILLE     NOT AVBL
ROCK HILL      SUNNY     63  32  31 NE16G23   30.26R
ANDERSON       SUNNY     66  38  35 NE17G24   30.25F
CLEMSON        NOT AVBL
GREENWOOD      CLOUDY    66  39  37 NE17G23   30.25F


...................COASTAL AND OFFSHORE REPORTS..................

................LOCAL PIERS AND NC RESERVE................


STATION/POSITION TIME  SKY/WX   TEMP    WIND        PRES    VSBY
                                AIR SEA DIR/SP/G
                 (UTC)          (F)     (DEG/KT/KT) (MB)    (MI)
JOHNY MRCER PIER 1600            54 59  360/ 24/ 31 1017.7S
NC RESRV MASNBRO 1500            54     360/  7     1017.0S
OCEAN CREST PIER 1600            55 60   10/ 13/ 21 1016.7S
SPRINGMAID  PIER 1600            58 60   10/ 15/ 20 1018.6S


................COASTAL AND OFFSHORE BUOYS................


STATION/POSITION TIME  SKY/WX   TEMP    WIND        PRES    VSBY
                                AIR SEA DIR/SP/G
                 (UTC)          (F)     (DEG/KT/KT) (MB)    (MI)
DIMNDSHOAL 41025 1600            69 76   70/ 31/ 39 1015.5R
WVE H/P(F/S)= 15/11 WND WVE H/P(F/S)= 15/11

CAPE LOOKOUT     1500            56      10/ 20/ 25 1017.0S
ONSLOW BAY 41036 1600            59 64   10/ 31/ 39 1015.3F
WVE H/P(F/S)= 10/ 7 WND WVE H/P(F/S)=  8/ 7 SWL H/P/D(F/S/D)=  5/ 80/10

5 WRITEBCH 41038 1500            55 59   20/ 27/ 37 1017.0F
MASONBORO  41110 1600               59                N/A
WVE H/P(F/S)=  7/ 6 WND WVE H/P(F/S)=  7/ 6 SWL H/P/D(F/S/D)=  2/ 90/11

WILM HARBR 41108 1600               60                N/A
WVE H/P(F/S)=  6/ 4 WND WVE H/P(F/S)=  7/ 4 SWL H/P/D(F/S/D)=  2/120/11

27WRITEBCH 41037 1500            54      20/ 33/ 41 1014.5F
FRYING PAN 41013 1600            58 69   20/ 29/ 37 1014.9R
WVE H/P(F/S)= 10/ 7 WND WVE H/P(F/S)= 10/ 7 SWL H/P/D(F/S/D)=  3/ 70/11

SUNST NRSH 41024 NOT AVBL
CAPRS NRSH 41029 NOT AVBL
EDISTO     41004 NOT AVBL


..........OFFSHORE BUOYS BEYOND 100 NM OFFSHORE...........
.....IN A TRIANGLE---HAT TO BERMUDA TO BAHAMAS TO HAT.....


STATION/POSITION TIME  SKY/WX   TEMP    WIND        PRES    VSBY
                                AIR SEA DIR/SP/G
                 (UTC)          (F)     (DEG/KT/KT) (MB)    (MI)
150E HAT   41001 NOT AVBL
W BERMUDA  41048 1454            71 70  160/ 10/ 12 1017.9F
WVE H/P(F/S)=  5/ 8 WND WVE H/P(F/S)=  2/ 4 SWL H/P/D(F/S/D)=  5/110/ 8

ATLANTIC S 41049 1516            75 75  160/ 10/ 12 1022.6F
WVE H/P(F/S)=  6/10 WND WVE H/P(F/S)=  2/ 4 SWL H/P/D(F/S/D)=  7/ 60/10

E BAHAMAS  41046 NOT AVBL
NE BAHAMAS 41047 1544            76 75  180/ 16/ 19 1017.5S
WVE H/P(F/S)=  7/ 9 WND WVE H/P(F/S)=  5/ 6 SWL H/P/D(F/S/D)=  5/110/ 9

120E CANVRL41010 1600            72 76  250/  8/ 10 1014.5F
WVE H/P(F/S)=  6/ 8 WND WVE H/P(F/S)=  2/ 4 SWL H/P/D(F/S/D)=  7/ 60/ 8


END



USA.gov is the U.S. government's official web portal to all federal, state and local government web resources and services.